Zurück zum Katalog

STARLINK-37870

AktivKommunikationSSO
NORAD 69432·PAYLOAD·🇺🇸 United States

Gestartet Jun 7, 2026 von Vandenberg Space Force Base

Loading…

Nächste Überflüge (nächste 24 Stunden)

TLE

AktuellSource: CelesTrak SupGP

Epoche: Sep 14, 2026, 21:42 UTC

1 69432C 26126N   26257.90465278  .00035311  00000+0  10966-2 0  2577
2 69432  97.2845 119.2831 0001898  93.0032 172.2809 15.33406906    16

Verfolge STARLINK-37870 in Echtzeit mit AllMySat

Download on the App Store